******** Week 367 almanac for PRN-01 ******** ID: 01 Health: 000 Eccentricity: 0.1701354980E-002 Time of Applicability(s): 61440.0000 Orbital Inclination(rad): 0.9575539510 Rate of Right Ascen(r/s): -0.8331775623E-008 SQRT(A) (m 1/2): 5153.563477 Right Ascen at Week(rad): 0.2260785454E+001 Argument of Perigee(rad): 0.163358468 Mean Anom(rad): 0.2361622595E+001 Af0(s): 0.2937316895E-003 Af1(s/s): -0.7275957614E-011 week: 367 ******** Week 367 almanac for PRN-02 ******** ID: 02 Health: 000 Eccentricity: 0.1682233810E-001 Time of Applicability(s): 61440.0000 Orbital Inclination(rad): 0.9626172860 Rate of Right Ascen(r/s): -0.8286059433E-008 SQRT(A) (m 1/2): 5153.712891 Right Ascen at Week(rad): 0.2098410442E+001 Argument of Perigee(rad): -0.781026168 Mean Anom(rad): -0.2412393389E+001 Af0(s): 0.8201599121E-004 Af1(s/s): 0.7275957614E-011 week: 367 ******** Week 367 almanac for PRN-03 ******** ID: 03 Health: 000 Eccentricity: 0.6712913513E-002 Time of Applicability(s): 61440.0000 Orbital Inclination(rad): 0.9942616319 Rate of Right Ascen(r/s): -0.7440309919E-008 SQRT(A) (m 1/2): 5153.567871 Right Ascen at Week(rad): -0.3033913269E+001 Argument of Perigee(rad): 1.209420638 Mean Anom(rad): 0.3001876066E+000 Af0(s): 0.4968643188E-003 Af1(s/s): -0.1455191523E-010 week: 367 ******** Week 367 almanac for PRN-04 ******** ID: 04 Health: 000 Eccentricity: 0.3715038300E-002 Time of Applicability(s): 61440.0000 Orbital Inclination(rad): 0.9708564407 Rate of Right Ascen(r/s): -0.7691748964E-008 SQRT(A) (m 1/2): 5153.660156 Right Ascen at Week(rad): -0.1964594961E+001 Argument of Perigee(rad): -2.872126608 Mean Anom(rad): -0.3033212941E+001 Af0(s): 0.5435943604E-004 Af1(s/s): 0.0000000000E+000 week: 367 ******** Week 367 almanac for PRN-05 ******** ID: 05 Health: 000 Eccentricity: 0.5503654480E-002 Time of Applicability(s): 61440.0000 Orbital Inclination(rad): 0.9807494183 Rate of Right Ascen(r/s): -0.7588887536E-008 SQRT(A) (m 1/2): 5153.692383 Right Ascen at Week(rad): -0.3094250846E+001 Argument of Perigee(rad): 1.421748896 Mean Anom(rad): -0.2369242690E+001 Af0(s): -0.2317428589E-003 Af1(s/s): 0.0000000000E+000 week: 367 ******** Week 367 almanac for PRN-06 ******** ID: 06 Health: 000 Eccentricity: 0.3776550293E-002 Time of Applicability(s): 61440.0000 Orbital Inclination(rad): 0.9863520435 Rate of Right Ascen(r/s): -0.8046049436E-008 SQRT(A) (m 1/2): 5153.617188 Right Ascen at Week(rad): 0.2212642950E+001 Argument of Perigee(rad): -0.533554920 Mean Anom(rad): 0.1582499671E+001 Af0(s): -0.6093978882E-003 Af1(s/s): 0.3637978807E-011 week: 367 ******** Week 367 almanac for PRN-07 ******** ID: 07 Health: 000 Eccentricity: 0.2076673508E-001 Time of Applicability(s): 61440.0000 Orbital Inclination(rad): 0.9507828639 Rate of Right Ascen(r/s): -0.8011762293E-008 SQRT(A) (m 1/2): 5153.542480 Right Ascen at Week(rad): -0.9558872449E+000 Argument of Perigee(rad): -1.976204304 Mean Anom(rad): 0.7507379124E+000 Af0(s): -0.1754760742E-003 Af1(s/s): -0.3637978807E-011 week: 367 ******** Week 367 almanac for PRN-08 ******** ID: 08 Health: 000 Eccentricity: 0.1159095764E-001 Time of Applicability(s): 61440.0000 Orbital Inclination(rad): 0.9428912518 Rate of Right Ascen(r/s): -0.8148910863E-008 SQRT(A) (m 1/2): 5153.658691 Right Ascen at Week(rad): 0.1089841293E+001 Argument of Perigee(rad): 0.538486429 Mean Anom(rad): -0.2729460777E+001 Af0(s): 0.4587173462E-003 Af1(s/s): -0.7275957614E-011 week: 367 ******** Week 367 almanac for PRN-09 ******** ID: 09 Health: 000 Eccentricity: 0.3362655640E-002 Time of Applicability(s): 61440.0000 Orbital Inclination(rad): 0.9651159969 Rate of Right Ascen(r/s): -0.7714607059E-008 SQRT(A) (m 1/2): 5153.697754 Right Ascen at Week(rad): -0.2029175328E+001 Argument of Perigee(rad): 2.047031823 Mean Anom(rad): -0.2125071597E+001 Af0(s): 0.7581710815E-003 Af1(s/s): -0.3637978807E-011 week: 367 ******** Week 367 almanac for PRN-10 ******** ID: 10 Health: 000 Eccentricity: 0.1093578339E-001 Time of Applicability(s): 61440.0000 Orbital Inclination(rad): 0.9937822629 Rate of Right Ascen(r/s): -0.7428880871E-008 SQRT(A) (m 1/2): 5153.615723 Right Ascen at Week(rad): -0.3036420968E+001 Argument of Perigee(rad): -2.257396915 Mean Anom(rad): -0.6935828968E+000 Af0(s): -0.5884170532E-003 Af1(s/s): 0.0000000000E+000 week: 367 ******** Week 367 almanac for PRN-11 ******** ID: 11 Health: 000 Eccentricity: 0.2237319946E-002 Time of Applicability(s): 61440.0000 Orbital Inclination(rad): 0.9632404657 Rate of Right Ascen(r/s): -0.8274630386E-008 SQRT(A) (m 1/2): 5153.546387 Right Ascen at Week(rad): 0.2230379229E+001 Argument of Perigee(rad): -2.330485706 Mean Anom(rad): 0.2751852177E+001 Af0(s): -0.3681182861E-003 Af1(s/s): 0.1091393642E-010 week: 367 ******** Week 367 almanac for PRN-12 ******** ID: 12 Health: 000 Eccentricity: 0.8891105652E-002 Time of Applicability(s): 61440.0000 Orbital Inclination(rad): 0.9594534507 Rate of Right Ascen(r/s): -0.7600316584E-008 SQRT(A) (m 1/2): 5153.702637 Right Ascen at Week(rad): 0.1619405841E+000 Argument of Perigee(rad): 1.574806548 Mean Anom(rad): 0.4162046408E-001 Af0(s): -0.6074905396E-003 Af1(s/s): 0.0000000000E+000 week: 367 ******** Week 367 almanac for PRN-13 ******** ID: 13 Health: 000 Eccentricity: 0.1015377045E-001 Time of Applicability(s): 61440.0000 Orbital Inclination(rad): 0.9763332314 Rate of Right Ascen(r/s): -0.7691748964E-008 SQRT(A) (m 1/2): 5153.617676 Right Ascen at Week(rad): -0.1853418430E+001 Argument of Perigee(rad): 0.993588493 Mean Anom(rad): -0.2952917511E+001 Af0(s): 0.6790161133E-003 Af1(s/s): 0.0000000000E+000 week: 367 ******** Week 367 almanac for PRN-14 ******** ID: 14 Health: 000 Eccentricity: 0.6989002228E-002 Time of Applicability(s): 61440.0000 Orbital Inclination(rad): 0.9427774017 Rate of Right Ascen(r/s): -0.7806039439E-008 SQRT(A) (m 1/2): 5153.608398 Right Ascen at Week(rad): 0.1065760866E+000 Argument of Perigee(rad): -2.725913821 Mean Anom(rad): -0.8848552459E-001 Af0(s): 0.7438659668E-003 Af1(s/s): 0.0000000000E+000 week: 367 ******** Week 367 almanac for PRN-15 ******** ID: 15 Health: 000 Eccentricity: 0.1667976379E-001 Time of Applicability(s): 61440.0000 Orbital Inclination(rad): 0.9431848653 Rate of Right Ascen(r/s): -0.7943188009E-008 SQRT(A) (m 1/2): 5153.662109 Right Ascen at Week(rad): -0.2174389679E+001 Argument of Perigee(rad): 1.509974513 Mean Anom(rad): 0.2559989605E+001 Af0(s): 0.4043579102E-003 Af1(s/s): 0.3637978807E-011 week: 367 ******** Week 367 almanac for PRN-16 ******** ID: 16 Health: 000 Eccentricity: 0.1500225067E-001 Time of Applicability(s): 61440.0000 Orbital Inclination(rad): 0.9585606259 Rate of Right Ascen(r/s): -0.7634603726E-008 SQRT(A) (m 1/2): 5153.625977 Right Ascen at Week(rad): 0.1788278550E+000 Argument of Perigee(rad): 0.933209346 Mean Anom(rad): -0.1681380388E+001 Af0(s): 0.2479553223E-003 Af1(s/s): 0.7275957614E-011 week: 367 ******** Week 367 almanac for PRN-17 ******** ID: 17 Health: 000 Eccentricity: 0.1258897781E-001 Time of Applicability(s): 61440.0000 Orbital Inclination(rad): 0.9584707442 Rate of Right Ascen(r/s): -0.8034620388E-008 SQRT(A) (m 1/2): 5153.573730 Right Ascen at Week(rad): 0.1195309963E+001 Argument of Perigee(rad): -1.114037069 Mean Anom(rad): -0.2762867178E+001 Af0(s): -0.1163482666E-003 Af1(s/s): -0.7275957614E-011 week: 367 ******** Week 367 almanac for PRN-18 ******** ID: 18 Health: 000 Eccentricity: 0.5874633789E-002 Time of Applicability(s): 61440.0000 Orbital Inclination(rad): 0.9713118412 Rate of Right Ascen(r/s): -0.8194627053E-008 SQRT(A) (m 1/2): 5153.580566 Right Ascen at Week(rad): 0.2206926100E+001 Argument of Perigee(rad): -2.871134164 Mean Anom(rad): 0.1536560392E+001 Af0(s): -0.3728866577E-003 Af1(s/s): 0.1091393642E-010 week: 367 ******** Week 367 almanac for PRN-19 ******** ID: 19 Health: 000 Eccentricity: 0.1136970520E-001 Time of Applicability(s): 61440.0000 Orbital Inclination(rad): 0.9576078800 Rate of Right Ascen(r/s): -0.8068907531E-008 SQRT(A) (m 1/2): 5153.685059 Right Ascen at Week(rad): 0.1239180090E+001 Argument of Perigee(rad): 2.955096018 Mean Anom(rad): -0.1004773145E+001 Af0(s): 0.6971359253E-003 Af1(s/s): 0.0000000000E+000 week: 367 ******** Week 367 almanac for PRN-20 ******** ID: 20 Health: 000 Eccentricity: 0.2185344696E-002 Time of Applicability(s): 61440.0000 Orbital Inclination(rad): 0.9605020703 Rate of Right Ascen(r/s): -0.7817468486E-008 SQRT(A) (m 1/2): 5153.707520 Right Ascen at Week(rad): -0.2023805271E+001 Argument of Perigee(rad): -1.906145649 Mean Anom(rad): -0.5417656122E-001 Af0(s): 0.1163482666E-003 Af1(s/s): 0.1818989404E-010 week: 367 ******** Week 367 almanac for PRN-21 ******** ID: 21 Health: 000 Eccentricity: 0.8478164673E-003 Time of Applicability(s): 61440.0000 Orbital Inclination(rad): 0.9636599136 Rate of Right Ascen(r/s): -0.7726036106E-008 SQRT(A) (m 1/2): 5153.749512 Right Ascen at Week(rad): -0.3029108719E+001 Argument of Perigee(rad): -0.177548539 Mean Anom(rad): -0.3931874389E+000 Af0(s): 0.4148483276E-003 Af1(s/s): 0.0000000000E+000 week: 367 ******** Week 367 almanac for PRN-22 ******** ID: 22 Health: 000 Eccentricity: 0.1199674606E-001 Time of Applicability(s): 61440.0000 Orbital Inclination(rad): 0.9580153437 Rate of Right Ascen(r/s): -0.7657461821E-008 SQRT(A) (m 1/2): 5153.576660 Right Ascen at Week(rad): 0.1821886811E+000 Argument of Perigee(rad): -0.993038342 Mean Anom(rad): -0.2114968896E+001 Af0(s): -0.1621246338E-004 Af1(s/s): 0.7275957614E-011 week: 367 ******** Week 367 almanac for PRN-23 ******** ID: 23 Health: 000 Eccentricity: 0.6118774414E-002 Time of Applicability(s): 61440.0000 Orbital Inclination(rad): 0.9887488884 Rate of Right Ascen(r/s): -0.7508884204E-008 SQRT(A) (m 1/2): 5153.674805 Right Ascen at Week(rad): -0.3068718454E+001 Argument of Perigee(rad): -2.740276165 Mean Anom(rad): 0.3706469844E+000 Af0(s): 0.6380081177E-003 Af1(s/s): 0.3637978807E-011 week: 367 ******** Week 367 almanac for PRN-24 ******** ID: 24 Health: 000 Eccentricity: 0.1800537109E-001 Time of Applicability(s): 61440.0000 Orbital Inclination(rad): 0.9347479710 Rate of Right Ascen(r/s): -0.8263201338E-008 SQRT(A) (m 1/2): 5153.571777 Right Ascen at Week(rad): -0.1065275130E+001 Argument of Perigee(rad): 1.141875300 Mean Anom(rad): 0.1732901694E+001 Af0(s): -0.2861022949E-004 Af1(s/s): 0.1818989404E-010 week: 367 ******** Week 367 almanac for PRN-25 ******** ID: 25 Health: 000 Eccentricity: 0.1287794113E-001 Time of Applicability(s): 61440.0000 Orbital Inclination(rad): 0.9478107762 Rate of Right Ascen(r/s): -0.7748894201E-008 SQRT(A) (m 1/2): 5153.656250 Right Ascen at Week(rad): 0.6763184973E-001 Argument of Perigee(rad): 1.160517511 Mean Anom(rad): -0.6504924927E-001 Af0(s): 0.4291534424E-003 Af1(s/s): -0.3637978807E-011 week: 367 ******** Week 367 almanac for PRN-26 ******** ID: 26 Health: 000 Eccentricity: 0.1103162766E-001 Time of Applicability(s): 61440.0000 Orbital Inclination(rad): 0.9285521267 Rate of Right Ascen(r/s): -0.7988904198E-008 SQRT(A) (m 1/2): 5153.687500 Right Ascen at Week(rad): -0.7747801401E-002 Argument of Perigee(rad): 0.713165495 Mean Anom(rad): -0.8901893495E+000 Af0(s): -0.3557205200E-003 Af1(s/s): -0.3637978807E-011 week: 367 ******** Week 367 almanac for PRN-27 ******** ID: 27 Health: 000 Eccentricity: 0.1436614990E-001 Time of Applicability(s): 61440.0000 Orbital Inclination(rad): 0.9519633101 Rate of Right Ascen(r/s): -0.8080336578E-008 SQRT(A) (m 1/2): 5153.622559 Right Ascen at Week(rad): 0.1122293076E+001 Argument of Perigee(rad): 0.895053821 Mean Anom(rad): -0.2618562130E+001 Af0(s): -0.1144409180E-003 Af1(s/s): -0.1818989404E-010 week: 367 ******** Week 367 almanac for PRN-28 ******** ID: 28 Health: 000 Eccentricity: 0.4167556763E-003 Time of Applicability(s): 61440.0000 Orbital Inclination(rad): 0.9616885086 Rate of Right Ascen(r/s): -0.7920329914E-008 SQRT(A) (m 1/2): 5153.505859 Right Ascen at Week(rad): -0.9811009306E+000 Argument of Perigee(rad): -0.396108968 Mean Anom(rad): 0.1471405158E+001 Af0(s): -0.5512237549E-003 Af1(s/s): 0.1091393642E-010 week: 367 ******** Week 367 almanac for PRN-29 ******** ID: 29 Health: 000 Eccentricity: 0.3523826599E-002 Time of Applicability(s): 61440.0000 Orbital Inclination(rad): 0.9611252500 Rate of Right Ascen(r/s): -0.8034620388E-008 SQRT(A) (m 1/2): 5153.687500 Right Ascen at Week(rad): 0.1212177385E+001 Argument of Perigee(rad): 2.762907625 Mean Anom(rad): -0.2790006204E+001 Af0(s): -0.3376007080E-003 Af1(s/s): 0.7275957614E-011 week: 367 ******** Week 367 almanac for PRN-30 ******** ID: 30 Health: 000 Eccentricity: 0.8211135864E-002 Time of Applicability(s): 61440.0000 Orbital Inclination(rad): 0.9360482594 Rate of Right Ascen(r/s): -0.8194627053E-008 SQRT(A) (m 1/2): 5153.663086 Right Ascen at Week(rad): -0.9655858534E+000 Argument of Perigee(rad): -2.286407727 Mean Anom(rad): 0.5215676991E+000 Af0(s): 0.1935958862E-003 Af1(s/s): 0.1455191523E-010 week: 367 ******** Week 367 almanac for PRN-31 ******** ID: 31 Health: 000 Eccentricity: 0.1081180573E-001 Time of Applicability(s): 61440.0000 Orbital Inclination(rad): 0.9545399184 Rate of Right Ascen(r/s): -0.8000333246E-008 SQRT(A) (m 1/2): 5153.524414 Right Ascen at Week(rad): -0.9314547809E+000 Argument of Perigee(rad): 0.944628815 Mean Anom(rad): -0.3279591752E+000 Af0(s): -0.1544952393E-003 Af1(s/s): 0.3637978807E-011 week: 367 ******** Week 367 almanac for PRN-32 ******** ID: 32 Health: 000 Eccentricity: 0.9378433228E-002 Time of Applicability(s): 61440.0000 Orbital Inclination(rad): 0.9681180453 Rate of Right Ascen(r/s): -0.7680319916E-008 SQRT(A) (m 1/2): 5153.699219 Right Ascen at Week(rad): -0.2012010921E+001 Argument of Perigee(rad): -1.980533606 Mean Anom(rad): -0.2072601665E+001 Af0(s): 0.1049041748E-004 Af1(s/s): 0.1818989404E-010 week: 367